Location: Central Falls
(41.8900°N, 71.3929°W)
Time: 02:55:43
(UTC+00:00)

Vanguard 2 Rocket - Pass Details

Date: 07 December 2023
Orbit: 555 x 3309 km, 32.9° (Epoch: 01 March)

Event Time Altitude Azimuth Distance (km) Brightness Sun altitude
Rises 19:43:30 0° 249° (WSW) 6,187 12.4 12.4°
Reaches altitude 10° 19:47:09 10° 246° (WSW) 5,457 12.4 11.9°
Maximum altitude 20:04:43 63° 171° (S) 3,534 10.3 9.6°
Drops below altitude 10° 20:23:57 10° 97° (E) 5,910 10.6 6.9°
Sets 20:28:06 0° 94° (E) 6,703 10.9 6.3°
